Total_Precipitation_Accumulation
0.22 0.30 0.33 0.31 0.30 0.33 0.35 0.39 0.50 0.57 0.72 0.87 0.88 0.89 0.93 0.83 0.68 0.67 0.59 0.62 0.67 0.63 0.54 0.51 0.51 0.55 0.70 0.79 0.88 0.99 1.16 1.30 1.43 1.49 1.50 1.51 1.46 1.50 1.52 1.44 1.39 1.49 1.41 1.37
0.28 0.32 0.35 0.34 0.34 0.30 0.28 0.26 0.30 0.48 0.71 0.70 0.68 0.74 0.83 0.80 0.84 0.82 0.72 0.56 0.53 0.57 0.56 0.54 0.45 0.45 0.51 0.66 0.81 0.92 1.07 1.19 1.25 1.34 1.42 1.38 1.33 1.37 1.39 1.42 1.42 1.42 1.35 1.35
0.38 0.42 0.50 0.54 0.43 0.41 0.40 0.35 0.38 0.60 0.74 0.60 0.60 0.64 0.66 0.64 0.70 0.75 0.71 0.75 0.72 0.67 0.66 0.56 0.46 0.47 0.50 0.55 0.70 0.90 1.02 1.07 1.15 1.28 1.37 1.36 1.29 1.34 1.40 1.42 1.40 1.32 1.25 1.25
0.41 0.57 0.81 0.62 0.38 0.33 0.33 0.36 0.35 0.45 0.50 0.49 0.53 0.53 0.57 0.62 0.58 0.57 0.49 0.55 0.69 0.72 0.72 0.68 0.60 0.61 0.63 0.62 0.70 0.84 1.01 1.12 1.18 1.30 1.34 1.36 1.33 1.28 1.30 1.28 1.28 1.29 1.22 1.20
0.52 0.63 0.66 0.55 0.44 0.42 0.44 0.45 0.33 0.37 0.43 0.43 0.50 0.56 0.64 0.52 0.44 0.53 0.49 0.54 0.60 0.61 0.66 0.80 0.85 0.81 0.82 0.84 0.81 0.85 1.00 1.13 1.25 1.39 1.42 1.41 1.39 1.35 1.36 1.35 1.31 1.29 1.27 1.30
0.54 0.77 0.83 0.66 0.49 0.51 0.59 0.84 0.56 0.49 0.53 0.53 0.51 0.75 0.83 0.52 0.45 0.65 0.56 0.53 0.58 0.59 0.61 0.75 0.81 0.78 0.80 0.86 0.94 0.97 1.05 1.15 1.28 1.39 1.50 1.46 1.49 1.52 1.48 1.43 1.38 1.35 1.40 1.43
0.60 0.80 0.89 0.61 0.48 0.56 0.98 1.14 0.67 0.59 0.61 0.66 0.67 0.68 0.64 0.50 0.53 0.61 0.55 0.52 0.50 0.54 0.68 0.74 0.73 0.79 0.89 0.91 0.98 1.05 1.15 1.23 1.35 1.45 1.49 1.49 1.55 1.60 1.57 1.52 1.55 1.47 1.38 1.40
0.81 1.04 1.10 0.64 0.57 0.83 0.95 0.69 0.62 0.60 0.56 0.60 0.61 0.55 0.46 0.44 0.48 0.50 0.54 0.56 0.63 0.72 0.81 0.81 0.85 0.98 1.10 1.15 1.10 1.17 1.28 1.31 1.42 1.55 1.40 1.39 1.61 1.68 1.68 1.68 1.67 1.59 1.51 1.42
1.00 1.09 0.93 0.76 0.79 0.87 0.75 0.73 0.64 0.55 0.54 0.52 0.57 0.56 0.49 0.47 0.44 0.45 0.51 0.54 0.65 0.78 0.84 0.86 0.91 1.07 1.29 1.29 1.25 1.26 1.38 1.43 1.46 1.52 1.63 1.71 1.74 1.78 1.76 1.71 1.69 1.64 1.59 1.50
1.10 1.08 0.97 0.90 0.87 0.84 0.76 0.69 0.59 0.52 0.53 0.52 0.60 0.65 0.58 0.54 0.53 0.50 0.51 0.53 0.58 0.73 0.79 0.91 1.01 1.16 1.41 1.45 1.43 1.46 1.54 1.60 1.61 1.62 1.65 1.78 1.94 1.91 1.81 1.69 1.71 1.73 1.65 1.65
1.28 1.22 1.07 0.94 0.80 0.72 0.64 0.58 0.53 0.51 0.54 0.57 0.61 0.66 0.62 0.65 0.64 0.58 0.56 0.56 0.61 0.77 0.91 0.97 1.02 1.11 1.29 1.46 1.61 1.69 1.71 1.70 1.71 1.76 1.78 1.83 1.82 1.75 1.71 1.65 1.57 1.65 1.68 1.68
1.46 1.16 1.02 0.96 0.79 0.75 0.65 0.58 0.57 0.56 0.55 0.60 0.59 0.61 0.60 0.63 0.68 0.63 0.66 0.73 0.70 0.74 0.89 0.97 1.04 1.15 1.29 1.51 1.79 2.00 1.96 1.84 1.82 1.84 1.86 1.84 1.83 1.61 1.41 1.33 1.29 1.24 1.30 1.32
1.09 0.94 0.92 0.83 0.76 0.77 0.75 0.71 0.70 0.69 0.63 0.66 0.71 0.65 0.63 0.66 0.67 0.62 0.62 0.78 0.84 0.78 0.83 0.94 0.98 1.16 1.34 1.52 1.79 2.04 2.09 2.03 1.93 1.87 1.81 1.75 1.77 1.76 1.63 1.46 1.41 1.27 1.14 1.07
0.97 1.02 0.99 0.90 0.81 0.79 0.81 0.77 0.71 0.75 0.70 0.66 0.76 0.86 0.86 0.71 0.67 0.67 0.65 0.75 0.81 0.80 0.83 0.86 0.89 0.97 1.20 1.53 1.84 1.97 2.00 1.95 1.87 1.81 1.75 1.70 1.71 1.73 1.67 1.64 1.62 1.50 1.31 1.19
0.99 1.12 1.08 0.90 0.91 0.89 0.80 0.76 0.79 0.87 0.74 0.70 0.79 0.98 0.99 0.81 0.75 0.78 0.76 0.76 0.76 0.79 0.81 0.83 0.91 0.95 1.08 1.41 1.77 1.90 1.86 1.78 1.72 1.72 1.76 1.77 1.78 1.82 1.81 1.82 1.81 1.74 1.54 1.37
1.04 1.03 1.01 0.90 0.90 0.91 0.79 0.80 0.86 0.88 0.79 0.76 0.79 0.97 1.08 0.94 0.82 0.84 0.83 0.86 0.90 0.86 0.87 0.91 0.95 0.97 1.10 1.33 1.61 1.80 1.90 1.86 1.79 1.71 1.68 1.75 1.82 1.78 1.79 1.87 1.85 1.77 1.68 1.47
1.15 1.07 1.00 0.91 0.90 0.94 0.93 0.90 0.93 0.95 0.99 0.99 0.91 0.96 1.05 0.98 0.97 0.97 0.95 0.96 1.03 1.02 1.01 1.05 1.08 1.12 1.21 1.38 1.57 1.62 1.66 1.62 1.57 1.46 1.43 1.48 1.60 1.66 1.69 1.80 1.78 1.68 1.57 1.43
1.22 1.14 1.06 0.96 0.92 0.95 0.96 0.97 0.99 1.04 1.11 1.06 1.02 1.07 1.19 1.22 1.26 1.25 1.13 1.04 1.06 1.11 1.17 1.20 1.20 1.27 1.37 1.43 1.55 1.57 1.61 1.58 1.48 1.41 1.44 1.49 1.53 1.56 1.66 1.73 1.70 1.63 1.48 1.32
1.24 1.15 1.06 1.00 1.00 1.05 1.11 1.11 1.05 1.04 1.07 1.03 1.06 1.13 1.25 1.38 1.41 1.37 1.29 1.23 1.26 1.33 1.36 1.37 1.40 1.26 1.31 1.45 1.61 1.74 1.74 1.69 1.68 1.66 1.58 1.62 1.61 1.63 1.69 1.66 1.60 1.59 1.50 1.35
1.27 1.21 1.16 1.16 1.14 1.17 1.17 1.12 1.09 1.00 0.95 0.96 1.04 1.10 1.22 1.39 1.45 1.45 1.41 1.36 1.42 1.53 1.53 1.48 1.33 1.27 1.30 1.45 1.63 1.69 1.78 1.78 1.68 1.59 1.54 1.53 1.57 1.65 1.66 1.55 1.45 1.43 1.39 1.28
1.43 1.39 1.39 1.34 1.30 1.25 1.19 1.14 1.07 1.02 0.99 1.01 1.12 1.21 1.30 1.42 1.51 1.55 1.59 1.57 1.49 1.42 1.30 1.30 1.22 1.24 1.26 1.37 1.49 1.54 1.65 1.69 1.69 1.61 1.50 1.41 1.39 1.41 1.38 1.32 1.26 1.23 1.23 1.21
1.49 1.39 1.33 1.22 1.14 1.09 1.04 1.00 0.94 0.92 0.94 1.01 1.08 1.15 1.25 1.34 1.43 1.45 1.44 1.58 1.55 1.47 1.26 1.16 1.18 1.25 1.27 1.26 1.25 1.38 1.48 1.49 1.44 1.36 1.25 1.17 1.14 1.16 1.14 1.07 1.04 1.00 0.99 1.00
1.41 1.24 1.16 1.10 1.01 0.92 0.85 0.79 0.74 0.78 0.86 0.92 1.02 1.18 1.32 1.35 1.37 1.45 1.40 1.26 1.23 1.22 1.15 1.13 1.12 1.15 1.11 1.07 1.14 1.20 1.26 1.27 1.24 1.21 1.16 1.09 1.04 1.08 1.05 0.94 0.89 0.85 0.83 0.83
1.22 1.06 0.98 0.93 0.86 0.78 0.74 0.68 0.62 0.63 0.69 0.79 0.91 1.05 1.24 1.35 1.30 1.19 1.21 1.14 1.01 0.91 0.90 0.93 0.91 0.93 0.94 0.92 0.99 1.07 1.10 1.08 1.06 1.01 0.96 0.91 0.88 0.92 0.88 0.81 0.76 0.74 0.75 0.73
1.08 0.98 0.88 0.80 0.78 0.75 0.68 0.63 0.59 0.58 0.62 0.74 0.83 0.90 1.06 1.26 1.34 1.14 0.93 0.79 0.76 0.70 0.68 0.68 0.67 0.69 0.69 0.70 0.74 0.84 0.92 0.96 0.96 0.92 0.83 0.80 0.80 0.82 0.77 0.72 0.69 0.69 0.68 0.68
0.93 0.90 0.89 0.83 0.77 0.77 0.73 0.70 0.74 0.75 0.84 1.01 1.02 0.92 0.97 1.06 1.06 0.95 0.80 0.64 0.60 0.61 0.56 0.54 0.53 0.50 0.46 0.44 0.49 0.61 0.67 0.72 0.79 0.78 0.74 0.74 0.74 0.73 0.73 0.72 0.68 0.65 0.64 0.65
0.85 0.83 0.84 0.83 0.77 0.76 0.79 0.80 0.85 0.92 1.06 1.29 1.34 1.11 1.01 1.00 0.95 0.86 0.80 0.72 0.65 0.66 0.59 0.52 0.49 0.46 0.43 0.43 0.45 0.51 0.55 0.58 0.64 0.67 0.67 0.65 0.67 0.71 0.69 0.67 0.69 0.64 0.60 0.59